Regional Weather Roundup
Issued by NWS

Home | Current Version | Previous Version | Graphics & Text | Print | Product List | Glossary On
Versions: 1 2 3 4 5 6 7 8 9 10 11 12 13 14 15 16 17 18 19 20 21 22 23 24 25 26 27 28 29 30 31 32 33 34 35 36 37 38 39 40 41 42 43 44 45 46 47 48 49 50
613
ASUS45 KCYS 290210
RWRWY

WYOMING REGIONAL WEATHER ROUNDUP
NATIONAL WEATHER SERVICE CHEYENNE WY
800 PM MDT WED JUN 28 2017

NOTE:  "FAIR" INDICATES FEW OR NO CLOUDS BELOW 12,000 FEET
WITH NO SIGNIFICANT WEATHER AND/OR OBSTRUCTIONS TO VISIBILITY.

WYZ001-290300-
YELLOWSTONE NATIONAL PARK

CITY           SKY/WX    TMP DP  RH WIND       PRES   REMARKS
LK YELLOWSTONE   N/A     42  41  96 VRB3      30.12F
W YELLOWSTONE  NOT AVBL

$$
WYZ002>013-054>058-071-098>099-290300-
NORTHERN WYOMING

CITY           SKY/WX    TMP DP  RH WIND       PRES   REMARKS
JACKSON        SUNNY     54  45  71 SW8       30.02S
CODY           LGT RAIN  56  46  69 SW3       29.98R
GREYBULL       MOCLDY    63  45  51 NW25G38   29.89R
WORLAND        FAIR      61  48  62 N20G30    29.89R
SHERIDAN       MOCLDY    62  47  57 NW10      29.89R
BUFFALO        FAIR      61  47  59 N12G24    29.92R
GILLETTE       FAIR      59  53  80 N12       29.85R
NEWCASTLE      FAIR      64  50  59 NE22G28   29.77F

$$
WYZ014>020-022>026-101>103-290300-
CENTRAL WYOMING

CITY           SKY/WX    TMP DP  RH WIND       PRES   REMARKS
BIG PINEY      MOCLDY    52  40  63 NE13      30.07F
PINEDALE       FAIR      48  41  76 NE8       30.09F
DUBOIS         FAIR      50  37  62 N7        30.04R
LANDER         FAIR      67  34  29 W15G30    29.95R
RIVERTON       LGT RAIN  66  36  32 W39G48    29.95R
CASPER         FAIR      71  34  25 W9G20     29.88R
DOUGLAS        FAIR      71  41  33 NW13      29.87R

$$
WYZ021-027>030-104>119-290300-
SOUTHERN WYOMING

CITY           SKY/WX    TMP DP  RH WIND       PRES   REMARKS
EVANSTON       FAIR      68  32  26 NW12      30.03R
KEMMERER         N/A     63  32  31 NW12G18   30.05R
FORT BRIDGER   FAIR      70  34  26 N13G21    30.05R
ROCK SPRINGS   FAIR      66  33  29 N16G22    30.02R
DIXON          FAIR      72  28  19 NW18G31   30.00R
RAWLINS        FAIR      69  30  23 W13       30.00R
SARATOGA       FAIR      68  30  24 NW16      30.01R
LARAMIE        MOCLDY    68  30  24 W26G47    30.01R
CHEYENNE       FAIR      71  37  28 E6        29.91R
TORRINGTON     FAIR      80  43  26 E12       29.73R
PINE BLUFFS    FAIR      73  39  29 CALM      29.86R

$$




USA.gov is the U.S. government's official web portal to all federal, state and local government web resources and services.